Wind_Speed
9 9 9 9 8 8 8 9 10 11 11 12 12 14 14 15 14 15 15 16 16 16 16 15 15 15 16 16 16 17 17 17 17 16 17 17 17 17 18 18 18 19 18
10 10 10 10 10 10 11 11 11 12 13 13 14 15 16 16 16 16 16 16 16 16 15 15 15 16 16 16 16 17 17 17 17 17 17 18 18 19 19 19 19 19 18
11 11 12 12 12 12 13 13 13 14 14 15 15 16 16 16 16 17 17 17 17 16 16 16 16 16 16 17 17 18 18 17 17 17 18 19 19 20 19 19 19 20 19
13 13 13 14 15 15 15 15 16 16 16 17 17 17 17 17 17 18 18 18 18 17 17 17 17 17 18 18 18 18 18 18 17 17 18 19 19 20 20 20 20 19 19
15 15 15 16 16 17 17 17 18 18 18 19 19 19 19 19 19 19 19 19 19 19 18 18 18 18 19 19 19 18 18 17 18 18 18 18 18 19 20 20 20 20 20
17 17 17 18 18 18 19 19 20 20 20 20 20 20 20 20 20 20 20 20 20 20 20 19 19 19 19 18 18 17 17 17 17 18 18 19 19 20 20 20 20 20 21
19 19 20 20 20 21 20 21 21 21 21 21 21 20 21 21 21 21 21 21 21 21 21 22 21 21 20 19 18 18 18 18 19 20 20 20 20 20 21 21 21 21 22
22 22 22 23 23 23 23 22 22 22 22 23 22 22 22 22 22 22 23 23 22 22 22 22 22 21 20 19 19 19 19 19 20 21 21 20 20 20 21 22 22 23 23
25 25 25 24 24 24 24 24 24 24 25 25 24 24 24 24 24 24 24 24 23 22 22 22 22 22 21 20 20 20 21 21 21 21 21 21 21 21 22 23 24 24 25
27 27 27 26 26 26 25 26 26 26 26 26 26 26 26 26 26 26 26 25 24 23 23 23 22 22 22 22 22 22 22 22 22 22 21 22 22 23 24 24 25 26 26
28 28 28 28 27 27 27 27 27 28 28 28 28 28 28 27 28 27 27 27 25 25 24 23 23 23 23 23 23 23 23 23 23 23 23 23 24 25 26 26 27 27 28
29 29 29 29 28 28 28 28 29 29 29 30 30 29 29 29 28 28 27 26 26 26 25 24 24 24 24 24 25 25 24 24 24 25 25 25 25 26 27 28 28 28 29
28 29 29 29 29 29 29 29 30 30 30 30 29 29 29 29 29 29 28 28 28 27 26 26 26 26 26 26 26 26 26 27 27 27 27 27 28 29 29 29 29 30 30
29 29 30 30 30 30 30 31 31 30 30 30 30 29 28 28 28 29 29 29 28 27 27 28 28 28 28 28 28 28 28 28 28 29 29 29 30 31 31 31 31 31 32
29 30 30 30 31 31 31 31 31 31 31 31 31 30 29 29 29 29 29 28 28 28 28 28 29 29 30 29 29 29 29 30 30 30 31 31 32 32 32 32 32 32 33
29 30 30 30 30 31 31 31 32 32 31 30 31 30 29 29 29 30 29 29 29 29 29 29 29 30 30 30 29 30 30 31 32 32 33 33 33 33 33 33 34 34 34
29 30 30 30 30 31 31 31 32 31 31 30 30 29 29 30 30 30 30 30 29 29 29 30 30 31 30 30 30 30 31 32 33 33 34 34 34 34 34 34 35 35 35
29 30 30 30 31 31 31 31 31 30 29 30 30 30 30 30 30 30 30 29 29 29 29 30 30 30 30 30 30 31 32 32 33 33 34 34 35 35 35 35 35 36 36
29 29 30 30 31 31 30 30 30 30 30 30 30 30 30 30 29 29 29 29 29 29 29 29 29 29 29 31 31 32 32 32 33 33 33 34 35 36 36 36 36 36 36
28 29 30 30 30 30 30 30 30 31 30 30 30 30 30 29 29 29 29 29 29 30 29 29 29 30 30 31 32 33 33 33 34 34 34 34 35 35 35 35 35 35 35
28 29 30 30 30 30 30 30 30 30 31 30 30 30 30 30 29 29 29 29 29 29 29 30 30 31 32 33 33 33 33 34 34 34 35 34 35 35 35 35 35 34 34
29 30 30 30 29 29 29 29 29 29 30 30 30 29 29 29 30 30 30 30 30 31 31 30 30 31 31 32 33 33 34 35 35 35 35 35 36 36 36 35 35 35 35
28 29 29 29 29 29 29 28 28 28 29 29 30 29 29 30 30 29 29 29 29 29 29 29 30 30 31 31 32 33 35 35 35 34 35 36 36 36 36 36 36 36 35
29 29 29 29 29 29 29 28 28 27 27 28 28 28 29 29 29 29 29 28 28 28 28 29 30 30 31 32 33 34 35 34 34 35 35 35 35 35 35 36 36 36 36
28 28 28 28 28 28 28 27 27 28 27 27 27 28 28 28 29 28 28 28 27 27 27 28 30 31 32 33 34 35 35 36 36 37 36 35 35 35 35 36 36 37 36
27 26 26 27 27 27 26 26 26 25 26 26 26 26 26 27 27 27 27 27 26 26 27 28 30 31 32 33 34 34 34 35 35 35 34 35 35 35 35 35 36 36 35
Wind_Direction
321 319 319 319 318 318 321 322 322 320 318 316 315 315 315 315 314 315 314 310 310 311 308 305 302 299 299 299 296 295 294 293 288 285 284 283 283 285 284 283 287 286 282
312 312 310 312 314 315 315 314 312 312 312 311 311 311 310 312 311 311 314 315 312 310 309 308 307 303 301 302 297 293 293 291 287 283 282 282 281 283 284 283 284 285 283
304 306 306 308 308 310 309 308 306 307 309 310 311 311 311 309 309 309 310 314 313 310 308 307 306 304 303 303 302 298 294 291 287 284 283 283 284 282 283 283 283 284 285
298 300 301 303 304 305 305 304 302 303 305 306 307 308 309 309 307 304 304 307 308 308 307 305 304 303 303 302 302 302 297 292 288 287 287 286 285 283 283 285 283 285 285
293 295 297 299 299 300 301 300 301 301 301 300 301 303 305 303 303 303 302 303 303 303 303 302 302 303 303 303 301 301 297 292 290 288 289 289 287 286 286 287 285 284 285
290 292 293 295 297 296 296 297 299 300 300 298 299 298 300 301 302 302 302 302 301 300 300 300 303 304 304 303 301 302 301 294 290 290 292 291 290 288 287 288 287 285 284
285 289 291 293 294 293 294 295 296 297 296 297 299 298 299 300 304 304 301 300 299 299 301 303 304 304 303 303 303 301 300 297 292 290 290 289 286 286 287 287 286 285 284
282 283 285 288 290 291 291 293 294 294 293 295 298 299 297 297 298 299 297 295 297 298 299 300 301 301 302 301 301 301 300 299 296 293 290 287 286 288 289 288 287 286 285
280 283 284 286 288 290 290 290 291 292 293 294 294 295 295 294 295 294 293 292 293 295 296 298 300 300 299 300 301 302 300 299 298 298 294 289 289 290 291 290 288 286 286
278 280 283 285 288 288 289 290 291 291 291 291 292 293 293 292 292 292 290 289 290 293 294 295 297 299 297 297 299 300 298 297 297 296 295 293 291 291 291 290 289 288 287
279 279 280 282 285 286 288 290 291 292 291 290 290 290 290 290 290 291 290 287 287 289 290 292 293 295 296 294 295 296 296 296 297 297 296 294 293 292 292 292 291 289 287
278 279 280 281 283 284 285 288 290 290 291 291 290 288 288 288 287 289 290 288 288 289 288 290 291 292 293 293 293 295 295 296 295 294 294 293 293 292 292 292 292 291 290
277 278 278 280 281 282 285 288 289 289 291 293 290 287 287 288 288 288 287 288 288 287 286 288 289 291 292 292 293 293 293 294 295 293 291 291 291 291 291 291 291 290 290
276 276 277 278 280 282 285 287 289 289 290 290 290 288 287 289 289 288 287 286 285 285 286 286 287 288 291 292 291 293 293 293 293 292 291 291 291 290 290 290 290 290 290
276 276 277 278 280 281 284 287 289 290 290 289 288 287 286 287 287 286 285 286 286 286 286 287 287 288 290 291 291 292 292 291 291 292 292 291 290 290 289 289 289 289 289
277 277 278 279 281 282 284 285 287 289 289 288 286 284 285 285 284 283 284 286 285 284 285 287 288 289 289 290 290 291 291 290 291 291 291 290 290 289 289 289 289 289 290
277 278 278 279 281 282 283 284 286 287 287 286 285 284 284 284 283 283 283 285 286 286 287 288 288 288 288 289 289 290 291 291 291 292 291 290 290 290 290 290 289 289 289
279 279 279 279 280 281 281 282 284 284 284 284 284 282 282 282 282 282 283 285 286 286 287 288 287 287 287 289 290 290 292 292 292 292 292 291 290 290 290 290 290 289 289
281 280 279 279 280 280 281 282 282 283 283 282 281 281 282 282 283 283 284 285 286 287 287 288 288 288 288 290 291 292 293 293 293 292 293 293 293 292 291 291 291 291 290
282 282 281 280 280 280 281 281 281 282 282 283 283 283 283 283 284 284 284 285 286 287 288 288 288 289 291 292 292 293 294 294 295 295 295 295 296 295 294 294 293 292 291
281 281 282 281 281 281 281 280 281 282 283 283 283 284 285 285 284 284 285 286 287 286 287 289 290 291 292 292 293 295 294 295 296 297 297 296 296 295 295 294 293 292 292
281 281 281 281 280 280 279 280 280 281 283 284 285 286 286 286 284 284 285 285 285 285 285 286 289 292 292 293 294 294 295 296 297 297 296 296 295 295 294 294 293 293 293
282 282 281 281 281 280 279 279 280 280 282 283 284 285 284 284 285 286 286 286 285 285 286 289 291 292 293 294 295 295 295 296 297 298 296 296 296 295 294 294 293 293 293
283 282 281 281 280 280 282 281 282 284 284 284 284 285 286 285 286 288 288 288 288 288 289 291 292 293 294 295 296 297 298 298 298 299 298 297 296 295 294 294 293 294 293
283 283 283 281 281 283 284 283 284 285 285 286 286 287 287 287 287 288 289 288 288 289 290 292 293 295 296 296 296 297 299 299 299 299 299 298 297 296 295 294 294 294 294
284 285 285 285 285 285 284 285 286 286 287 288 288 288 288 289 290 290 290 289 288 288 291 294 297 298 298 298 298 299 300 299 300 301 299 298 298 297 297 297 296 296 295
Height
5900 5899 5898 5896 5895 5893 5892 5891 5889 5888 5886 5884 5882 5881 5879 5876 5874 5872 5869 5867 5865 5862 5860 5858 5856 5855 5853 5851 5850 5848 5846 5845 5844 5843 5842 5840 5839 5838 5836 5835 5833 5832 5831
5897 5896 5895 5893 5892 5890 5889 5888 5886 5885 5883 5881 5879 5877 5875 5873 5870 5868 5866 5864 5861 5858 5855 5853 5852 5850 5848 5846 5844 5842 5840 5839 5838 5837 5836 5835 5834 5832 5831 5829 5828 5826 5825
5894 5893 5891 5890 5888 5887 5886 5884 5883 5881 5879 5877 5875 5873 5871 5868 5866 5864 5862 5860 5857 5854 5851 5849 5847 5845 5843 5841 5839 5837 5835 5833 5832 5830 5830 5829 5827 5826 5825 5823 5822 5821 5819
5890 5889 5888 5886 5885 5883 5882 5880 5878 5876 5874 5872 5871 5868 5866 5864 5862 5859 5857 5855 5853 5850 5847 5845 5843 5841 5839 5837 5834 5832 5830 5828 5826 5825 5824 5823 5821 5820 5819 5817 5816 5814 5813
5886 5885 5883 5882 5880 5879 5877 5875 5873 5871 5869 5867 5865 5863 5861 5859 5857 5854 5852 5850 5848 5845 5843 5841 5838 5836 5834 5831 5829 5827 5825 5823 5821 5820 5818 5817 5816 5814 5813 5811 5810 5809 5807
5881 5880 5878 5877 5875 5874 5872 5870 5868 5866 5864 5862 5860 5858 5856 5853 5851 5849 5846 5844 5842 5840 5838 5836 5833 5831 5829 5826 5823 5821 5819 5818 5816 5814 5813 5812 5810 5808 5807 5805 5804 5803 5802
5875 5874 5873 5871 5870 5868 5866 5864 5862 5860 5858 5856 5854 5852 5850 5848 5846 5843 5841 5839 5837 5835 5833 5831 5828 5826 5824 5821 5818 5816 5814 5812 5810 5809 5807 5805 5804 5802 5801 5799 5798 5797 5795
5869 5868 5867 5865 5864 5862 5860 5858 5856 5854 5852 5850 5848 5846 5844 5842 5840 5838 5836 5833 5832 5830 5828 5825 5823 5821 5818 5815 5813 5811 5808 5806 5804 5802 5800 5798 5797 5796 5794 5793 5791 5790 5789
5862 5861 5859 5858 5857 5855 5853 5851 5849 5847 5845 5843 5842 5840 5837 5836 5833 5831 5829 5827 5826 5824 5822 5819 5817 5815 5812 5810 5808 5805 5803 5801 5798 5796 5793 5791 5790 5789 5787 5786 5784 5783 5781
5854 5853 5852 5851 5849 5848 5846 5844 5842 5840 5838 5836 5834 5832 5830 5828 5826 5824 5822 5821 5819 5817 5815 5813 5811 5809 5807 5804 5802 5799 5797 5795 5792 5789 5787 5786 5784 5782 5780 5779 5777 5775 5773
5845 5844 5844 5843 5842 5840 5839 5837 5835 5833 5830 5828 5826 5824 5822 5821 5819 5817 5815 5813 5812 5810 5808 5806 5804 5802 5800 5798 5795 5793 5791 5788 5786 5784 5782 5779 5777 5775 5773 5771 5769 5767 5765
5836 5836 5835 5834 5833 5832 5830 5829 5827 5824 5822 5820 5818 5816 5814 5812 5811 5809 5807 5805 5804 5802 5801 5799 5797 5795 5793 5791 5788 5786 5784 5782 5780 5777 5775 5772 5770 5768 5765 5763 5761 5758 5756
5827 5827 5827 5826 5825 5824 5822 5821 5818 5816 5814 5811 5809 5807 5806 5804 5803 5801 5799 5798 5796 5794 5793 5792 5790 5788 5786 5783 5781 5779 5776 5774 5772 5770 5767 5765 5762 5760 5757 5755 5752 5750 5747
5820 5819 5818 5817 5816 5815 5814 5812 5810 5808 5805 5803 5801 5800 5798 5797 5795 5793 5791 5789 5788 5786 5785 5783 5782 5779 5777 5775 5773 5771 5768 5766 5764 5761 5759 5756 5754 5751 5748 5746 5744 5741 5738
5811 5810 5810 5809 5808 5807 5805 5804 5802 5800 5797 5795 5793 5792 5790 5789 5787 5785 5783 5781 5780 5778 5776 5774 5772 5770 5769 5767 5765 5762 5760 5757 5755 5753 5750 5747 5745 5742 5739 5737 5734 5732 5729
5802 5802 5801 5800 5799 5798 5796 5795 5792 5790 5788 5786 5785 5783 5781 5780 5778 5777 5775 5773 5770 5769 5767 5765 5763 5761 5759 5758 5755 5753 5751 5748 5746 5743 5740 5738 5735 5732 5729 5727 5724 5721 5718
5794 5793 5792 5791 5790 5789 5787 5785 5783 5781 5779 5777 5776 5774 5773 5771 5769 5768 5766 5763 5761 5759 5758 5756 5754 5752 5750 5748 5746 5744 5741 5739 5736 5733 5730 5727 5725 5722 5719 5716 5713 5710 5707
5785 5784 5783 5782 5781 5780 5778 5776 5774 5773 5771 5769 5767 5766 5764 5762 5760 5758 5756 5754 5753 5751 5748 5747 5745 5743 5741 5739 5737 5735 5732 5729 5727 5724 5721 5717 5714 5711 5708 5705 5702 5699 5696
5776 5775 5774 5773 5772 5770 5769 5767 5765 5763 5762 5760 5758 5756 5755 5753 5751 5749 5747 5746 5744 5742 5740 5738 5736 5734 5732 5730 5728 5725 5722 5720 5717 5714 5710 5707 5704 5700 5697 5694 5691 5687 5684
5767 5766 5764 5763 5761 5760 5759 5757 5756 5754 5752 5750 5749 5747 5745 5743 5741 5740 5738 5737 5735 5733 5731 5729 5727 5725 5723 5720 5718 5715 5713 5710 5706 5703 5700 5696 5693 5690 5686 5683 5680 5676 5673
5758 5757 5755 5753 5752 5751 5749 5748 5746 5744 5743 5741 5740 5738 5736 5734 5733 5731 5729 5728 5726 5724 5722 5720 5718 5715 5713 5711 5708 5705 5702 5699 5696 5692 5689 5686 5682 5679 5676 5672 5668 5665 5662
5749 5747 5746 5744 5742 5741 5740 5738 5737 5735 5733 5732 5730 5728 5727 5725 5724 5722 5721 5719 5717 5715 5713 5711 5708 5706 5704 5701 5698 5695 5692 5688 5685 5682 5678 5675 5671 5668 5664 5661 5657 5654 5651
5740 5738 5736 5735 5734 5732 5731 5729 5727 5725 5724 5722 5721 5719 5717 5716 5714 5713 5711 5709 5707 5705 5703 5701 5699 5697 5694 5691 5688 5685 5682 5678 5675 5671 5667 5664 5660 5656 5653 5649 5646 5642 5639
5731 5729 5728 5727 5725 5723 5722 5720 5717 5716 5714 5713 5711 5710 5708 5706 5705 5703 5702 5700 5698 5696 5694 5692 5689 5687 5684 5682 5679 5675 5672 5668 5664 5660 5657 5653 5649 5645 5641 5638 5634 5631 5627
5722 5720 5719 5718 5716 5715 5713 5711 5709 5707 5705 5703 5702 5700 5699 5697 5696 5694 5692 5691 5689 5687 5685 5683 5680 5678 5675 5672 5668 5665 5661 5658 5654 5650 5646 5642 5638 5634 5630 5626 5622 5619 5615
5714 5712 5711 5709 5707 5706 5704 5703 5701 5698 5696 5695 5693 5692 5690 5689 5687 5686 5684 5682 5680 5678 5676 5673 5671 5668 5665 5662 5658 5654 5651 5647 5643 5639 5635 5631 5627 5623 5619 5615 5611 5607 5603